CYGFM03

Last updated on Tue Jan 14 2025 00:02:18 GMT+0000 (Coordinated Universal Time)

1 41891U 16078H 25013.42876256 .00016574 00000+0 45685-3 0 9999 2 41891 34.9463 25.0475 0008033 315.7611 44.2464 15.36206424448424
UTC large
Height (km)
Speed (km/s)
/
Latitude / Longitude
Inclination (degrees)
Orbital Period (minutes)
Azimuth
Elevation
Range (km)
Doppler Factor

Next 0 passes for location: London (51.5072 / 0.1276)

Sorry there are no passes over London.